This is the latest recevied weather packets stored in our database for station/object DB8NZ-22. If no packets are shown the sender has not sent any weather packets the latest 10 day(s).
| Time | Temp. | Humidity | Pressure | Rain* | Wind** | Luminosity | Snow |
|---|---|---|---|---|---|---|---|
| 1777661217 | 20.56° C | 29% | 1024.4 hPa | - | - | - | - |
| 1777660316 | 21.67° C | 27% | 1024.5 hPa | - | - | - | - |
| 1777659416 | 22.22° C | 26% | 1024.3 hPa | - | - | - | - |
| 1777658516 | 22.78° C | 25% | 1024.2 hPa | - | - | - | - |
| 1777657616 | 23.33° C | 24% | 1024.3 hPa | - | - | - | - |
| 1777656715 | 24.44° C | 23% | 1024.3 hPa | - | - | - | - |
| 1777655815 | 25.56° C | 22% | 1024.2 hPa | - | - | - | - |
| 1777654915 | 28.89° C | 19% | 1024.2 hPa | - | - | - | - |
| 1777654015 | 31.67° C | 17% | 1024.2 hPa | - | - | - | - |
| 1777653115 | 30.56° C | 17% | 1024.5 hPa | - | - | - | - |
| 1777652215 | 30.56° C | 17% | 1024.6 hPa | - | - | - | - |
| 1777651315 | 30.56° C | 18% | 1024.8 hPa | - | - | - | - |
| 1777650414 | 30° C | 17% | 1024.8 hPa | - | - | - | - |
| 1777649514 | 30.56° C | 17% | 1025 hPa | - | - | - | - |
| 1777648614 | 31.11° C | 17% | 1025.2 hPa | - | - | - | - |
| 1777647714 | 30.56° C | 18% | 1025.3 hPa | - | - | - | - |
| 1777646814 | 30° C | 18% | 1025.5 hPa | - | - | - | - |
| 1777645914 | 28.89° C | 19% | 1025.6 hPa | - | - | - | - |
| 1777645014 | 28.33° C | 19% | 1025.7 hPa | - | - | - | - |
| 1777644114 | 28.33° C | 19% | 1025.7 hPa | - | - | - | - |
| 1777643213 | 28.33° C | 20% | 1025.9 hPa | - | - | - | - |
| 1777642313 | 27.22° C | 20% | 1026.1 hPa | - | - | - | - |
| 1777641413 | 27.22° C | 20% | 1026.2 hPa | - | - | - | - |
| 1777640513 | 27.78° C | 20% | 1026.3 hPa | - | - | - | - |
| 1777639613 | 27.22° C | 21% | 1026.7 hPa | - | - | - | - |
* Rain since midnight (hover to see other rain measurements)
** Current wind speed in m/s (hover to see current wind gust speed)